EWG4XY LKPR-EDDL

Flight info

Callsign EWG4XY
Flight time 0h 55m
Altitude 36000
Route BALTU DCT DONAD DCT RAPET T843 VELIS DCT AMETU T852 TINSA T854 DOMUX
Aircraft A319/M-SDE3FGHIRWY/LB1

Departure

Time 2026-05-04 12:49
Airport Václav Havel Airport Prague (LKPR)

Arrival

Time 2026-05-04 13:44
Airport Düsseldorf Airport (EDDL)
Time Latitude Longitude Altitude Speed Heading
2026-05-04 12:10 50.10807 14.25867 1173 ft 0 kts 304°
2026-05-04 12:40 50.10810 14.25862 1175 ft 3 kts 304°
2026-05-04 12:41 50.10832 14.25810 1171 ft 8 kts 303°
2026-05-04 12:41 50.10810 14.25747 1172 ft 8 kts 213°
2026-05-04 12:41 50.10765 14.25701 1173 ft 8 kts 213°
2026-05-04 12:41 50.10722 14.25657 1176 ft 7 kts 213°
2026-05-04 12:42 50.10680 14.25617 1175 ft 7 kts 205°
2026-05-04 12:42 50.10649 14.25621 1179 ft 3 kts 156°
2026-05-04 12:42 50.10633 14.25650 1178 ft 5 kts 121°
2026-05-04 12:42 50.10612 14.25707 1180 ft 7 kts 119°
2026-05-04 12:43 50.10589 14.25770 1183 ft 8 kts 121°
2026-05-04 12:43 50.10550 14.25863 1183 ft 12 kts 123°
2026-05-04 12:43 50.10500 14.25978 1184 ft 13 kts 127°
2026-05-04 12:43 50.10444 14.26090 1186 ft 13 kts 128°
2026-05-04 12:44 50.10389 14.26202 1188 ft 13 kts 128°
2026-05-04 12:44 50.10335 14.26315 1191 ft 13 kts 126°
2026-05-04 12:44 50.10283 14.26427 1193 ft 13 kts 127°
2026-05-04 12:44 50.10231 14.26534 1195 ft 12 kts 127°
2026-05-04 12:45 50.10180 14.26641 1197 ft 13 kts 127°
2026-05-04 12:45 50.10124 14.26757 1198 ft 14 kts 127°
2026-05-04 12:45 50.10066 14.26876 1201 ft 14 kts 127°
2026-05-04 12:45 50.10006 14.27003 1204 ft 16 kts 127°
2026-05-04 12:46 50.09935 14.27147 1206 ft 18 kts 127°
2026-05-04 12:46 50.09851 14.27319 1205 ft 21 kts 131°
2026-05-04 12:46 50.09745 14.27483 1206 ft 22 kts 135°
2026-05-04 12:46 50.09652 14.27623 1207 ft 14 kts 136°
2026-05-04 12:47 50.09583 14.27628 1210 ft 10 kts 216°
2026-05-04 12:47 50.09528 14.27566 1212 ft 9 kts 215°
2026-05-04 12:47 50.09477 14.27509 1215 ft 9 kts 215°
2026-05-04 12:47 50.09429 14.27457 1218 ft 9 kts 215°
2026-05-04 12:48 50.09431 14.27373 1218 ft 11 kts 308°
2026-05-04 12:48 50.09566 14.27093 1215 ft 65 kts 307°
2026-05-04 12:48 50.09965 14.26266 1202 ft 125 kts 307°
2026-05-04 12:48 50.10587 14.24986 1352 ft 156 kts 309°
2026-05-04 12:49 50.11232 14.23656 1995 ft 154 kts 308°
2026-05-04 12:49 50.11880 14.22318 2545 ft 155 kts 307°
2026-05-04 12:49 50.12530 14.20977 3103 ft 155 kts 306°
2026-05-04 12:49 50.13180 14.19624 3622 ft 157 kts 306°
2026-05-04 12:50 50.13832 14.18264 4161 ft 157 kts 306°
2026-05-04 12:50 50.14498 14.16883 4606 ft 166 kts 305°
2026-05-04 12:50 50.15239 14.15338 4943 ft 190 kts 305°
2026-05-04 12:50 50.16074 14.13590 5280 ft 213 kts 305°
2026-05-04 12:51 50.17013 14.11625 5717 ft 239 kts 305°
2026-05-04 12:51 50.18057 14.09442 6253 ft 262 kts 305°
2026-05-04 12:51 50.19169 14.07120 7041 ft 271 kts 305°
2026-05-04 12:51 50.20125 14.04575 7944 ft 274 kts 287°
2026-05-04 12:52 50.20398 14.01646 8840 ft 274 kts 268°
2026-05-04 12:52 50.20399 13.98664 9804 ft 276 kts 268°
2026-05-04 12:52 50.20394 13.95619 10440 ft 290 kts 268°
2026-05-04 12:52 50.20382 13.92353 10768 ft 311 kts 268°
2026-05-04 12:53 50.20370 13.88918 11433 ft 320 kts 268°
2026-05-04 12:53 50.20361 13.85426 12202 ft 324 kts 268°
2026-05-04 12:53 50.20352 13.81893 12957 ft 328 kts 268°
2026-05-04 12:53 50.20345 13.78315 13703 ft 331 kts 268°
2026-05-04 12:54 50.20335 13.74700 14383 ft 335 kts 268°
2026-05-04 12:54 50.20324 13.71040 15055 ft 339 kts 268°
2026-05-04 12:54 50.20311 13.67335 15318 ft 341 kts 268°
2026-05-04 12:54 50.20296 13.63617 15744 ft 344 kts 268°
2026-05-04 12:55 50.20279 13.59869 16397 ft 347 kts 268°
2026-05-04 12:55 50.20261 13.56082 17036 ft 351 kts 268°
2026-05-04 12:55 50.20242 13.52255 17673 ft 355 kts 268°
2026-05-04 12:55 50.20222 13.48385 18283 ft 359 kts 268°
2026-05-04 12:56 50.20200 13.44475 18833 ft 362 kts 268°
2026-05-04 12:56 50.20178 13.40526 19399 ft 365 kts 268°
2026-05-04 12:56 50.20154 13.36548 19982 ft 368 kts 268°
2026-05-04 12:56 50.20129 13.32540 20580 ft 371 kts 268°
2026-05-04 12:57 50.20102 13.28503 21148 ft 374 kts 268°
2026-05-04 12:57 50.20073 13.24433 21710 ft 376 kts 268°
2026-05-04 12:57 50.20043 13.20335 22253 ft 380 kts 268°
2026-05-04 12:57 50.20013 13.16199 22803 ft 383 kts 268°
2026-05-04 12:58 50.19979 13.12028 23345 ft 386 kts 268°
2026-05-04 12:58 50.19940 13.07826 23847 ft 389 kts 268°
2026-05-04 12:58 50.19898 13.03588 24307 ft 391 kts 268°
2026-05-04 12:58 50.19856 12.99336 24774 ft 393 kts 268°
2026-05-04 12:59 50.19815 12.95056 25230 ft 395 kts 268°
2026-05-04 12:59 50.19773 12.90758 25686 ft 397 kts 268°
2026-05-04 12:59 50.19729 12.86444 26142 ft 398 kts 268°
2026-05-04 12:59 50.19682 12.82109 26595 ft 400 kts 267°
2026-05-04 13:00 50.19634 12.77765 27046 ft 401 kts 267°
2026-05-04 13:00 50.19584 12.73402 27499 ft 403 kts 267°
2026-05-04 13:00 50.19534 12.69022 27949 ft 405 kts 267°
2026-05-04 13:00 50.19480 12.64627 28395 ft 406 kts 267°
2026-05-04 13:01 50.19423 12.60210 28828 ft 408 kts 267°
2026-05-04 13:01 50.19364 12.55777 29267 ft 409 kts 267°
2026-05-04 13:01 50.19305 12.51323 29691 ft 411 kts 267°
2026-05-04 13:01 50.19244 12.46858 30112 ft 412 kts 267°
2026-05-04 13:02 50.19178 12.42385 30462 ft 414 kts 267°
2026-05-04 13:02 50.19111 12.37887 30799 ft 415 kts 267°
2026-05-04 13:02 50.19244 12.33367 31116 ft 419 kts 275°
2026-05-04 13:02 50.19823 12.28892 31443 ft 423 kts 281°
2026-05-04 13:03 50.20533 12.24433 31769 ft 424 kts 281°
2026-05-04 13:03 50.21243 12.19977 32217 ft 422 kts 281°
2026-05-04 13:03 50.21947 12.15542 32684 ft 421 kts 281°
2026-05-04 13:03 50.22646 12.11117 33160 ft 419 kts 281°
2026-05-04 13:04 50.23338 12.06709 33635 ft 417 kts 281°
2026-05-04 13:04 50.24020 12.02321 34111 ft 415 kts 281°
2026-05-04 13:04 50.24697 11.97944 34513 ft 414 kts 281°
2026-05-04 13:04 50.25372 11.93574 34882 ft 413 kts 281°
2026-05-04 13:05 50.26048 11.89213 35223 ft 413 kts 281°
2026-05-04 13:05 50.26727 11.84846 35550 ft 413 kts 281°
2026-05-04 13:05 50.27405 11.80486 35878 ft 413 kts 281°
2026-05-04 13:05 50.28083 11.76119 36012 ft 413 kts 281°
2026-05-04 13:06 50.28754 11.71768 36030 ft 411 kts 281°
2026-05-04 13:06 50.30086 11.63087 36021 ft 410 kts 280°
2026-05-04 13:07 50.31405 11.54415 36015 ft 410 kts 280°
2026-05-04 13:07 50.32691 11.45733 36007 ft 410 kts 280°
2026-05-04 13:08 50.33967 11.37045 36002 ft 410 kts 280°
2026-05-04 13:08 50.35241 11.28354 35996 ft 410 kts 280°
2026-05-04 13:09 50.36513 11.19665 35993 ft 409 kts 280°
2026-05-04 13:09 50.37786 11.10976 35990 ft 409 kts 280°
2026-05-04 13:10 50.39050 11.02285 35984 ft 409 kts 279°
2026-05-04 13:10 50.40305 10.93594 35980 ft 409 kts 279°
2026-05-04 13:11 50.41555 10.84899 35981 ft 409 kts 279°
2026-05-04 13:11 50.42793 10.76200 35982 ft 409 kts 279°
2026-05-04 13:12 50.44020 10.67501 35976 ft 408 kts 279°
2026-05-04 13:12 50.45274 10.58811 35979 ft 409 kts 279°
2026-05-04 13:13 50.46536 10.50117 35974 ft 408 kts 279°
2026-05-04 13:13 50.48379 10.41644 35974 ft 412 kts 288°
2026-05-04 13:14 50.50130 10.34624 35972 ft 412 kts 287°
2026-05-04 13:14 50.52206 10.26240 35979 ft 412 kts 287°
2026-05-04 13:15 50.54263 10.17905 35979 ft 412 kts 287°
2026-05-04 13:15 50.56325 10.09508 35981 ft 411 kts 287°
2026-05-04 13:16 50.58374 10.01109 35977 ft 411 kts 287°
2026-05-04 13:16 50.60422 9.92697 35981 ft 411 kts 287°
2026-05-04 13:17 50.62478 9.84230 35982 ft 411 kts 287°
2026-05-04 13:17 50.64500 9.75867 35982 ft 411 kts 287°
2026-05-04 13:18 50.66525 9.67450 35983 ft 411 kts 287°
2026-05-04 13:18 50.68540 9.59023 35985 ft 411 kts 286°
2026-05-04 13:19 50.70556 9.50597 35953 ft 411 kts 286°
2026-05-04 13:19 50.71563 9.46374 35702 ft 411 kts 286°
2026-05-04 13:19 50.72570 9.42158 35459 ft 411 kts 286°
2026-05-04 13:19 50.73574 9.37940 35206 ft 411 kts 286°
2026-05-04 13:20 50.74576 9.33722 34963 ft 410 kts 286°
2026-05-04 13:20 50.75576 9.29500 34459 ft 410 kts 286°
2026-05-04 13:20 50.76569 9.25310 34078 ft 406 kts 286°
2026-05-04 13:20 50.77554 9.21140 33585 ft 403 kts 285°
2026-05-04 13:21 50.78525 9.17015 33147 ft 398 kts 285°
2026-05-04 13:21 50.79482 9.12935 32705 ft 394 kts 285°
2026-05-04 13:21 50.80428 9.08886 32261 ft 390 kts 285°
2026-05-04 13:21 50.81358 9.04877 31825 ft 387 kts 285°
2026-05-04 13:22 50.82282 9.00897 31388 ft 384 kts 285°
2026-05-04 13:22 50.83340 8.97020 30939 ft 386 kts 293°
2026-05-04 13:22 50.84808 8.93449 30487 ft 390 kts 302°
2026-05-04 13:22 50.86506 8.90101 30019 ft 390 kts 303°
2026-05-04 13:23 50.88197 8.86753 29531 ft 388 kts 303°
2026-05-04 13:23 50.89868 8.83425 29083 ft 385 kts 303°
2026-05-04 13:23 50.91526 8.80106 28652 ft 383 kts 303°
2026-05-04 13:23 50.93173 8.76804 28219 ft 381 kts 303°
2026-05-04 13:24 50.94810 8.73518 27804 ft 379 kts 303°
2026-05-04 13:24 50.96440 8.70245 27393 ft 377 kts 303°
2026-05-04 13:24 50.98060 8.66982 26988 ft 375 kts 303°
2026-05-04 13:25 51.01345 8.60609 26197 ft 374 kts 310°
2026-05-04 13:25 51.03333 8.57947 25811 ft 376 kts 320°
2026-05-04 13:25 51.05520 8.55668 25419 ft 375 kts 322°
2026-05-04 13:25 51.07701 8.53413 25025 ft 372 kts 322°
2026-05-04 13:26 51.09864 8.51165 24621 ft 371 kts 322°
2026-05-04 13:26 51.12016 8.48925 24229 ft 368 kts 322°
2026-05-04 13:26 51.14157 8.46702 23821 ft 367 kts 322°
2026-05-04 13:26 51.16291 8.44482 23381 ft 365 kts 322°
2026-05-04 13:27 51.18406 8.42270 22944 ft 362 kts 322°
2026-05-04 13:27 51.20506 8.40077 22526 ft 359 kts 322°
2026-05-04 13:27 51.22589 8.37904 22112 ft 356 kts 322°
2026-05-04 13:27 51.24656 8.35744 21695 ft 354 kts 322°
2026-05-04 13:28 51.26708 8.33600 21272 ft 351 kts 322°
2026-05-04 13:28 51.28745 8.31465 20858 ft 349 kts 322°
2026-05-04 13:28 51.30768 8.29336 20436 ft 347 kts 322°
2026-05-04 13:28 51.32777 8.27215 20028 ft 345 kts 322°
2026-05-04 13:29 51.34778 8.25106 19626 ft 344 kts 322°
2026-05-04 13:29 51.36768 8.23009 19217 ft 342 kts 322°
2026-05-04 13:29 51.38753 8.20922 18815 ft 341 kts 322°
2026-05-04 13:29 51.40730 8.18842 18413 ft 340 kts 322°
2026-05-04 13:30 51.42728 8.16737 17958 ft 339 kts 322°
2026-05-04 13:30 51.44668 8.14693 17522 ft 337 kts 323°
2026-05-04 13:30 51.46621 8.12637 17080 ft 335 kts 322°
2026-05-04 13:30 51.48376 8.10276 16666 ft 326 kts 307°
2026-05-04 13:31 51.49594 8.07265 16252 ft 318 kts 290°
2026-05-04 13:31 51.50226 8.03872 15849 ft 311 kts 275°
2026-05-04 13:31 51.50245 8.00448 15451 ft 305 kts 259°
2026-05-04 13:31 51.49750 7.97165 15062 ft 302 kts 252°
2026-05-04 13:32 51.49179 7.93933 14679 ft 301 kts 252°
2026-05-04 13:32 51.48608 7.90703 14286 ft 301 kts 252°
2026-05-04 13:32 51.48038 7.87474 13888 ft 301 kts 252°
2026-05-04 13:32 51.47464 7.84240 13476 ft 301 kts 252°
2026-05-04 13:33 51.46892 7.81022 13086 ft 299 kts 253°
2026-05-04 13:33 51.46323 7.77821 12706 ft 297 kts 253°
2026-05-04 13:33 51.45755 7.74646 12318 ft 295 kts 252°
2026-05-04 13:33 51.45190 7.71494 11952 ft 293 kts 253°
2026-05-04 13:34 51.44623 7.68344 11484 ft 295 kts 253°
2026-05-04 13:34 51.44054 7.65187 11074 ft 295 kts 253°
2026-05-04 13:34 51.43488 7.62041 10692 ft 293 kts 253°
2026-05-04 13:34 51.42923 7.58911 10330 ft 292 kts 253°
2026-05-04 13:35 51.42360 7.55791 9973 ft 290 kts 253°
2026-05-04 13:35 51.41816 7.49541 9497 ft 279 kts 265°
2026-05-04 13:35 51.41704 7.46450 9161 ft 277 kts 265°
2026-05-04 13:36 51.41591 7.43373 8811 ft 276 kts 265°
2026-05-04 13:36 51.41474 7.40311 8455 ft 275 kts 265°
2026-05-04 13:36 51.41359 7.37261 8069 ft 273 kts 265°
2026-05-04 13:36 51.41244 7.34232 7628 ft 272 kts 265°
2026-05-04 13:37 51.41128 7.31215 7200 ft 271 kts 265°
2026-05-04 13:37 51.41011 7.28218 6729 ft 269 kts 265°
2026-05-04 13:37 51.40895 7.25243 6199 ft 267 kts 264°
2026-05-04 13:37 51.40817 7.23275 5844 ft 266 kts 264°
2026-05-04 13:38 51.40659 7.19338 5104 ft 263 kts 264°
2026-05-04 13:38 51.40542 7.16423 4606 ft 262 kts 264°
2026-05-04 13:38 51.40427 7.13520 4182 ft 261 kts 264°
2026-05-04 13:38 51.40310 7.10622 3830 ft 259 kts 264°
2026-05-04 13:39 51.40196 7.07804 3560 ft 248 kts 264°
2026-05-04 13:39 51.40090 7.05116 3304 ft 236 kts 264°
2026-05-04 13:39 51.39988 7.02553 3095 ft 226 kts 264°
2026-05-04 13:39 51.39685 7.00185 2996 ft 210 kts 244°
2026-05-04 13:40 51.38920 6.98326 3024 ft 190 kts 231°
2026-05-04 13:40 51.38158 6.96709 2949 ft 177 kts 231°
2026-05-04 13:40 51.37430 6.95162 2752 ft 171 kts 232°
2026-05-04 13:40 51.36724 6.93667 2554 ft 167 kts 232°
2026-05-04 13:41 51.36030 6.92200 2342 ft 164 kts 232°
2026-05-04 13:41 51.35354 6.90773 2123 ft 158 kts 232°
2026-05-04 13:41 51.34708 6.89408 1913 ft 149 kts 232°
2026-05-04 13:42 51.33543 6.86949 1541 ft 130 kts 233°
2026-05-04 13:42 51.33000 6.85804 1371 ft 128 kts 232°
2026-05-04 13:42 51.32464 6.84674 1195 ft 128 kts 232°
2026-05-04 13:42 51.31932 6.83553 1004 ft 125 kts 233°
2026-05-04 13:43 51.31400 6.82429 847 ft 128 kts 233°
2026-05-04 13:43 51.30857 6.81294 676 ft 130 kts 234°
2026-05-04 13:43 51.30315 6.80152 484 ft 128 kts 234°
2026-05-04 13:43 51.29782 6.79029 304 ft 127 kts 236°
2026-05-04 13:44 51.29248 6.77903 149 ft 126 kts 235°
2026-05-04 13:44 51.28785 6.76927 132 ft 87 kts 232°
2026-05-04 13:44 51.28524 6.76377 129 ft 50 kts 232°
2026-05-04 13:44 51.28363 6.76078 129 ft 19 kts 211°
2026-05-04 13:45 51.28237 6.76053 129 ft 18 kts 163°
2026-05-04 13:45 51.28200 6.76173 129 ft 11 kts 71°
2026-05-04 13:45 51.28179 6.76277 129 ft 10 kts 110°
2026-05-04 13:45 51.28207 6.76377 127 ft 11 kts 54°
2026-05-04 13:46 51.28259 6.76483 128 ft 13 kts 51°
2026-05-04 13:46 51.28318 6.76605 125 ft 12 kts 52°
2026-05-04 13:46 51.28358 6.76710 125 ft 10 kts 81°
2026-05-04 13:46 51.28317 6.76793 124 ft 10 kts 142°
2026-05-04 13:47 51.28255 6.76849 127 ft 10 kts 172°
2026-05-04 13:47 51.28179 6.76837 130 ft 12 kts 186°
2026-05-04 13:47 51.28111 6.76814 130 ft 10 kts 196°
2026-05-04 13:47 51.28057 6.76773 125 ft 5 kts 251°
2026-05-04 13:48 51.28059 6.76718 127 ft 2 kts 275°
2026-05-04 13:48 51.28059 6.76705 128 ft 0 kts 275°